Meeker, CO

3:18 AM MDT on May 29, 2017 (GMT -0600)
Meeker

Weather History for KEEO - June, 2013

Change the Weather History Date:

Wednesday, June 26, 2013

  Actual Average Record
Temperature  
Mean Temperature 67 °F 64 °F  
Max Temperature 90 °F 82 °F 91 °F (2002)
Min Temperature 44 °F 45 °F 35 °F (2003)
Degree Days  
Heating Degree Days 0 2  
Month to date heating degree days 76 136  
Since 1 June heating degree days 76 136  
Since 1 July heating degree days 8209 7969  
Cooling Degree Days 2 1  
Month to date cooling degree days 13 15  
Year to date cooling degree days 13 16  
Since 1 June cooling degree days 13 15  
Growing Degree Days 16 (Base 50)    
Moisture  
Dew Point 35 °F    
Average Humidity 39    
Maximum Humidity 65    
Minimum Humidity 13    
Precipitation  
Precipitation 0.00 in 0.04 in 0.46 in (2001)
Month to date precipitation 0.03 1.11  
Year to date precipitation 6.40 7.26  
Sea Level Pressure  
Sea Level Pressure 30.03 in    
Wind  
Wind Speed 5 mph (SSE)    
Max Wind Speed 20 mph    
Max Gust Speed 28 mph    
Visibility 6 miles    
Events      
T = Trace of Precipitation, MM = Missing Value Source: NWS Daily Summary

Daily Weather History Graph

Daily Weather History Graph

Search for Another Location

Airport or City:

Trip Planner

Search our weather history database for the weather conditions in past years. The results will help you decide how hot, cold, wet, or windy it might be!

Date:

Astronomy

Jun. 26, 2013 Rise Set
Actual Time 5:44 AM MDT 8:44 PM MDT
Civil Twilight 5:11 AM MDT 9:17 PM MDT
Nautical Twilight 4:29 AM MDT 9:59 PM MDT
Astronomical Twilight 3:40 AM MDT 10:47 PM MDT
Moon 11:09 PM MDT (6/26) 9:39 AM MDT (6/26)
Length of Visible Light 16h 06m
Length of Day
15h 00m
Waning Gibbous, 85% of the Moon is Illuminated
Jun 26
Waning Gibbous
Jun 29
Last Quarter
Jul 8
New
Jul 15
First Quarter
Jul 22
Full

Hourly Weather History & Observations

Time (MDT) Temp. Windchill Dew Point Humidity Pressure Visibility Wind Dir Wind Speed Gust Speed Precip Events Conditions
12:53 AM 55.9 °F - 37.0 °F 49% 29.93 in 10.0 mi ESE 8.1 mph - N/A   Clear
1:53 AM 52.0 °F - 36.0 °F 54% 29.94 in 10.0 mi ENE 5.8 mph - N/A   Clear
2:53 AM 50.0 °F - 35.1 °F 57% 29.95 in 10.0 mi ENE 5.8 mph - N/A   Clear
3:53 AM 48.0 °F - 34.0 °F 58% 29.96 in 10.0 mi ENE 3.5 mph - N/A   Clear
4:53 AM 46.0 °F 43.9 °F 34.0 °F 63% 29.98 in 10.0 mi Variable 4.6 mph - N/A   Clear
5:53 AM 44.1 °F - 34.0 °F 68% 29.99 in 10.0 mi Calm Calm - N/A   Clear
6:53 AM 52.0 °F - 36.0 °F 54% 29.99 in 10.0 mi Calm Calm - N/A   Clear
7:24 AM 55.4 °F - 35.6 °F 47% 30.23 in 1.8 mi Calm Calm - N/A   Haze
7:38 AM 57.2 °F - 35.6 °F 44% 30.24 in 3.0 mi Calm Calm - N/A   Haze
7:53 AM 59.0 °F - 36.0 °F 42% 29.98 in 1.2 mi Calm Calm - N/A   Haze
7:58 AM 59.0 °F - 35.6 °F 42% 30.24 in 0.8 mi Calm Calm - N/A   Haze
8:16 AM 62.6 °F - 37.4 °F 39% 30.24 in 1.2 mi Calm Calm - N/A   Haze
8:19 AM 62.6 °F - 35.6 °F 37% 30.24 in 3.0 mi North 3.5 mph - N/A   Haze
8:53 AM 66.9 °F - 36.0 °F 32% 29.98 in 9.0 mi Calm Calm - N/A   Clear
9:53 AM 73.9 °F - 37.0 °F 26% 29.97 in 9.0 mi Calm Calm - N/A   Clear
10:53 AM 79.0 °F - 39.0 °F 24% 29.97 in 4.0 mi Variable 4.6 mph - N/A   Haze
11:53 AM 84.0 °F - 35.1 °F 17% 29.96 in 6.0 mi Calm Calm - N/A   Haze
12:53 PM 87.1 °F - 37.0 °F 17% 29.93 in 8.0 mi South 11.5 mph 20.7 mph N/A   Mostly Cloudy
1:53 PM 87.1 °F - 33.1 °F 15% 29.94 in 7.0 mi WSW 15.0 mph 24.2 mph N/A   Mostly Cloudy
2:04 PM 87.8 °F - 33.8 °F 15% 30.21 in 8.0 mi South 8.1 mph 27.6 mph N/A   Mostly Cloudy
2:53 PM 87.1 °F - 36.0 °F 16% 29.94 in 6.0 mi SSW 12.7 mph - N/A   Haze
3:53 PM 88.0 °F - 32.0 °F 14% 29.93 in 10.0 mi South 11.5 mph - N/A   Partly Cloudy
4:49 PM 87.8 °F - 30.2 °F 13% 30.19 in 4.0 mi SSE 10.4 mph - N/A   Haze
4:53 PM 89.1 °F - 32.0 °F 13% 29.92 in 7.0 mi South 13.8 mph 23.0 mph N/A   Partly Cloudy
5:53 PM 88.0 °F - 30.9 °F 13% 29.93 in 6.0 mi SSW 5.8 mph - N/A   Haze
5:57 PM 87.8 °F - 33.8 °F 15% 30.18 in 2.0 mi South 6.9 mph - N/A   Haze
6:10 PM 87.8 °F - 35.6 °F 16% 30.18 in 4.0 mi SSW 5.8 mph - N/A   Haze
6:42 PM 84.2 °F - 37.4 °F 19% 30.18 in 1.8 mi SSW 4.6 mph - N/A   Haze
6:51 PM 84.2 °F - 37.4 °F 19% 30.18 in 2.0 mi SSW 4.6 mph - N/A   Haze
6:53 PM 84.9 °F - 37.0 °F 18% 29.91 in 3.0 mi SSW 4.6 mph - N/A   Haze
7:53 PM 82.0 °F - 37.0 °F 20% 29.91 in 10.0 mi Calm Calm - N/A   Clear
8:53 PM 75.0 °F - 37.0 °F 25% 29.93 in 10.0 mi Variable 3.5 mph - N/A   Clear
9:53 PM 70.0 °F - 39.0 °F 32% 29.96 in 10.0 mi Variable 3.5 mph - N/A   Clear
10:53 PM 63.0 °F - 37.0 °F 38% 30.00 in 10.0 mi ENE 3.5 mph - N/A   Clear
11:53 PM 62.1 °F - 35.1 °F 37% 30.00 in 10.0 mi East 6.9 mph - N/A   Clear